Weather History for KOFK - February, 2014

Change the Weather History Date:

Wednesday, February 19, 2014

  Actual Average Record
Temperature  
Mean Temperature 39 °F 28 °F  
Max Temperature 57 °F 38 °F 72 °F (1930)
Min Temperature 20 °F 18 °F -25 °F (1936)
Degree Days  
Heating Degree Days 26 37  
Month to date heating degree days 855 750  
Since 1 July heating degree days 4951 4772  
Cooling Degree Days 0 0  
Month to date cooling degree days 0 0  
Year to date cooling degree days 0 0  
Moisture  
Dew Point 21 °F    
Average Humidity 55    
Maximum Humidity 88    
Minimum Humidity 22    
Precipitation  
Precipitation 0.00 in 0.02 in 0.64 in (1971)
Month to date precipitation 0.21 0.48  
Year to date precipitation 0.35 1.07  
Snow  
Snow 0.00 in 0.20 in - ()
Month to date snowfall 3.2 3.9  
Since 1 July snowfall 7.7 21.2  
Snow Depth 0.00 in    
Sea Level Pressure  
Sea Level Pressure 29.78 in    
Wind  
Wind Speed 10 mph (South)    
Max Wind Speed 30 mph    
Max Gust Speed 36 mph    
Visibility 9 miles    
Events      
T = Trace of Precipitation, MM = Missing Value Source: NWS Daily Summary

Daily Weather History Graph

Daily Weather History Graph

Search for Another Location

Airport or City:

Trip Planner

Search our weather history database for the weather conditions in past years. The results will help you decide how hot, cold, wet, or windy it might be!

Date:

Astronomy

Feb. 19, 2014 Rise Set
Actual Time 7:19 AM CST 6:07 PM CST
Civil Twilight 6:51 AM CST 6:36 PM CST
Nautical Twilight 6:19 AM CST 7:08 PM CST
Astronomical Twilight 5:46 AM CST 7:41 PM CST
Moon 11:08 PM CST (2/19) 9:21 AM CST (2/19)
Length of Visible Light 11h 44m
Length of Day
10h 47m
Waning Gibbous, 79% of the Moon is Illuminated
Feb 19
Waning Gibbous
Feb 22
Last Quarter
Mar 1
New
Mar 8
First Quarter
Mar 16
Full

Hourly Weather History & Observations

Time (CST) Temp. Windchill Dew Point Humidity Pressure Visibility Wind Dir Wind Speed Gust Speed Precip Events Conditions
12:56 AM 28.9 °F 22.8 °F 23.0 °F 78% 29.95 in 10.0 mi WSW 5.8 mph - N/A   Clear
1:56 AM 28.0 °F 20.8 °F 23.0 °F 81% 29.95 in 10.0 mi West 6.9 mph - N/A   Clear
2:56 AM 28.0 °F - 23.0 °F 81% 29.94 in 10.0 mi Calm Calm - N/A   Clear
3:56 AM 26.1 °F - 19.9 °F 78% 29.94 in 10.0 mi Calm Calm - N/A   Clear
4:56 AM 25.0 °F - 21.0 °F 85% 29.93 in 3.0 mi Calm Calm - N/A   Clear
5:27 AM 24.1 °F - 19.9 °F 84% 29.89 in 1.8 mi Calm Calm - N/A   Clear
5:37 AM 25.0 °F - 19.0 °F 78% 29.89 in 3.0 mi Calm Calm - N/A   Haze
5:56 AM 23.0 °F - 18.0 °F 81% 29.93 in 9.0 mi Calm Calm - N/A   Clear
6:56 AM 24.1 °F 19.7 °F 19.9 °F 84% 29.93 in 10.0 mi SE 3.5 mph - N/A   Clear
7:56 AM 21.9 °F 17.2 °F 18.0 °F 85% 29.93 in 10.0 mi South 3.5 mph - N/A   Clear
8:56 AM 34.0 °F - 26.1 °F 73% 29.90 in 10.0 mi Calm Calm - N/A   Clear
9:56 AM 43.0 °F 36.0 °F 25.0 °F 49% 29.88 in 10.0 mi SSW 13.8 mph - N/A   Clear
10:56 AM 48.0 °F - 21.9 °F 36% 29.86 in 10.0 mi SSW 15.0 mph - N/A   Clear
11:56 AM 51.1 °F - 19.9 °F 29% 29.82 in 10.0 mi SSW 23.0 mph 29.9 mph N/A   Clear
12:56 PM 55.0 °F - 18.0 °F 23% 29.76 in 10.0 mi South 24.2 mph 32.2 mph N/A   Clear
1:56 PM 55.9 °F - 18.0 °F 23% 29.73 in 10.0 mi SSW 23.0 mph 35.7 mph N/A   Clear
2:56 PM 54.0 °F - 18.0 °F 24% 29.70 in 10.0 mi South 17.3 mph 27.6 mph N/A   Clear
3:56 PM 53.1 °F - 18.0 °F 25% 29.68 in 10.0 mi South 16.1 mph 24.2 mph N/A   Clear
4:56 PM 53.1 °F - 18.0 °F 25% 29.64 in 10.0 mi South 15.0 mph - N/A   Clear
5:56 PM 51.1 °F - 19.0 °F 28% 29.63 in 10.0 mi South 13.8 mph - N/A   Clear
6:56 PM 46.9 °F - 19.9 °F 34% 29.62 in 10.0 mi SSE 15.0 mph - N/A   Clear
7:56 PM 46.0 °F 40.2 °F 21.9 °F 39% 29.62 in 10.0 mi SSE 12.7 mph - N/A   Partly Cloudy
8:56 PM 44.1 °F 37.1 °F 23.0 °F 43% 29.61 in 10.0 mi South 15.0 mph - N/A   Partly Cloudy
9:56 PM 43.0 °F 36.4 °F 24.1 °F 47% 29.60 in 10.0 mi SSE 12.7 mph - N/A   Clear
10:56 PM 41.0 °F 36.4 °F 25.0 °F 53% 29.59 in 10.0 mi South 6.9 mph 19.6 mph N/A   Clear
11:56 PM 39.0 °F 35.7 °F 25.0 °F 57% 29.58 in 10.0 mi Variable 4.6 mph - N/A   Clear